Location: Bryngwran
(53.2667°N, 4.4833°W)
Time: 20:48:57
(UTC+00:00)

Daily predictions for brighter satellites

Satellite Brightness Start Highest point End
(mag) Time Altitude Azimuth Time Altitude Azimuth Time Altitude Azimuth
Cosmos 2251 Rocket 3.6 19:31:54 10° SSW 19:37:16 80° ESE 19:42:41 10° NNE
SL-08 RB Rocket 3.9 19:34:28 10° SSE 19:38:56 57° ENE 19:43:30 10° N
STARLINK-1243 3.6 19:35:10 10° W 19:39:20 87° S 19:43:29 10° E
CZ-4 R/B 4.2 19:36:39 10° SW 19:39:34 20° W 19:42:31 10° NW
MONITOR-E 3.7 19:38:45 10° SSE 19:41:22 78° ENE 19:44:01 10° N
ATLAS 2AS CENTAUR R/B 3.1 19:35:05 10° NW 19:42:51 81° SW 19:49:58 10° SE
Resurs 1-3 4.2 19:38:56 10° SE 19:43:02 41° ENE 19:47:10 10° N
SeaSat 1 2.5 19:38:42 10° NNE 19:43:41 85° ESE 19:48:38 10° SSW
STARLINK-1228 3.1 19:41:04 10° W 19:43:57 54° SSW 19:46:47 10° ESE
STARLINK-1236 3.6 19:40:08 10° W 19:44:18 86° S 19:48:27 10° E
Cosmos 1943 3.2 19:42:10 10° SSW 19:47:46 65° ESE 19:53:25 10° NE
CZ-4C R/B 3.8 19:42:15 10° NW 19:48:00 36° N 19:54:46 10° ENE
Ariane Rocket 3.4 19:44:06 10° S 19:49:09 68° WSW 19:54:14 10° NNW
Cosmos 1470 4.2 19:45:37 10° SW 19:49:20 43° WNW 19:53:07 10° N
Cosmos 1953 2.4 19:45:45 10° SSW 19:49:44 83° W 19:53:46 10° N
IRIDIUM 104 4.5 19:45:53 10° N 19:51:09 83° W 19:56:22 10° S
Cosmos 1656 Rocket 4.1 19:46:52 10° NW 19:52:31 66° WSW 19:58:02 10° SSE
Cosmos 1140 Rocket 4.3 19:48:33 10° SSE 19:52:54 28° E 19:57:14 10° NE
Cosmos 1726 2.1 19:49:34 10° S 19:53:18 81° E 19:57:03 10° NNE
STARLINK-1269 3.6 19:50:05 10° W 19:54:15 84° S 19:58:20 10° E
Meteor 1-11 4.3 19:51:01 10° N 19:56:48 71° ENE 20:02:29 10° SSE
Cosmos 2184 Rocket 4.2 19:51:49 10° NNW 19:58:09 81° W 20:04:22 10° S
Cosmos 1697 Rocket 4.3 19:54:31 10° NNW 19:58:58 23° NNE 20:03:25 10° E
COSMOS 2455 2.9 19:53:07 10° NW 19:59:10 74° NE 20:05:11 10° SE
STARLINK-1200 3.6 19:55:04 10° W 19:59:13 83° S 20:03:07 12° ESE
CZ-2C R/B 3.3 19:55:24 10° NNE 20:00:01 31° E 20:04:37 10° SSE
Cosmos 2058 Rocket 3.7 19:56:06 10° SSE 20:00:16 37° E 20:04:26 10° NNE
Spot 2 Rocket 4.5 19:56:54 10° ESE 20:01:18 31° ENE 20:05:45 10° N
Meteor 2-10 4.2 19:56:35 10° S 20:02:06 88° ESE 20:07:51 10° NNE
FREGAT/IRIS 3.6 20:00:08 10° S 20:02:45 43° W 20:05:24 10° NNW
MetOp-A 4.2 19:57:46 10° SSE 20:03:06 72° ENE 20:08:28 10° NNW
STARLINK-1192 3.6 20:00:03 10° W 20:04:13 82° S 20:07:54 13° ESE
Cosmos 614 Rocket 4.1 20:00:01 10° S 20:05:05 52° ESE 20:10:08 10° NNE
Cosmos 1726 Rocket 3.6 20:03:45 10° S 20:08:06 64° E 20:12:32 10° NNE
STARLINK-1244 3.6 20:05:01 10° W 20:09:10 80° S 20:12:41 14° ESE
ARGOS 3.6 20:04:12 10° S 20:09:32 65° WSW 20:14:55 10° NNW
ERBS 2.5 20:06:18 10° WNW 20:09:40 63° NNE 20:12:22 15° E
SL-24 R/B 4.0 20:07:16 10° NNE 20:11:23 51° E 20:15:05 10° S
Cosmos 1825 Rocket 4.3 20:07:18 10° NNW 20:11:37 54° W 20:15:52 10° S
USA 186 3.2 20:08:35 10° S 20:11:43 40° W 20:14:42 10° NNW
Resurs 01 Rocket 1.8 20:08:40 10° SE 20:12:58 55° ENE 20:17:19 10° N
ATLAS CENTAUR R/B 3.2 20:10:07 10° NNW 20:13:18 21° NNE 20:16:20 10° ENE
SL-16 R/B 4.1 20:08:20 10° WSW 20:13:26 33° NW 20:18:33 10° NNE
BREEZE-M DEB (TANK) 2.7 20:09:44 10° WSW 20:13:49 33° S 20:15:10 19° ESE
STARLINK-1138 3.6 20:10:00 10° W 20:14:09 78° SSW 20:17:28 16° ESE
SL-16 R/B 4.5 20:12:43 10° NNW 20:15:40 14° NNE 20:18:37 10° NE
STARLINK-1234 3.7 20:14:47 10° W 20:17:41 39° SSW 20:19:38 18° SE
Cosmos 921 Rocket 2.9 20:13:34 10° NNW 20:17:47 80° ENE 20:21:45 11° SSE
STARLINK-1233 3.4 20:14:52 10° W 20:17:55 48° SSW 20:19:56 19° SE
STARLINK-1212 3.4 20:15:20 10° W 20:18:22 47° SSW 20:20:22 19° SE
STARLINK-1209 3.7 20:15:56 10° W 20:18:47 37° SSW 20:20:40 18° SE
STARLINK-1105 3.4 20:15:47 10° W 20:18:50 47° SSW 20:20:48 19° SE
STARLINK-1143 3.6 20:14:58 10° W 20:19:07 77° SSW 20:22:14 17° ESE
STARLINK-1206 3.4 20:16:16 10° W 20:19:17 47° SSW 20:21:13 19° SE
STARLINK-1247 3.4 20:16:43 10° W 20:19:44 46° SSW 20:21:39 19° SE
STARLINK-1227 3.5 20:17:08 10° W 20:20:10 46° SSW 20:22:06 19° SE
Cosmos 962 Rocket 4.5 20:14:17 10° N 20:20:28 68° ENE 20:26:33 10° SSE
STARLINK-1218 3.4 20:17:38 10° W 20:20:38 46° SSW 20:22:31 20° SE
Cosmos 2154 Rocket 4.1 20:14:23 10° NNW 20:20:47 84° W 20:27:07 10° S
STARLINK-1226 3.5 20:18:03 10° W 20:21:05 46° SSW 20:22:58 20° SE
STARLINK-1254 3.5 20:18:29 10° W 20:21:31 46° SSW 20:23:24 20° SE
STARLINK-1215 3.5 20:18:59 10° W 20:21:59 45° SSW 20:23:49 20° SE
Nadezhda 1 Rocket 4.0 20:16:02 10° S 20:22:25 80° E 20:28:46 10° NNE
STARLINK-1231 3.5 20:19:25 10° W 20:22:26 45° SSW 20:24:15 20° SE
STARLINK-1232 3.5 20:20:20 10° W 20:23:20 44° SSW 20:25:08 20° SE
SL-8 Rocket 4.3 20:17:30 10° N 20:23:40 52° ENE 20:29:12 13° SSE
STARLINK-1217 3.5 20:20:46 10° W 20:23:47 44° SSW 20:25:33 21° SE
STARLINK-1241 3.6 20:19:58 10° W 20:24:08 75° SSW 20:27:03 19° ESE
STARLINK-1208 3.5 20:21:11 10° W 20:24:13 44° SSW 20:26:00 21° SE
STARLINK-1229 3.5 20:21:40 10° W 20:24:40 44° SSW 20:26:25 21° SE
STARLINK-1271 3.5 20:22:08 10° W 20:25:08 44° SSW 20:26:52 21° SE
STARLINK-1270 3.5 20:22:35 10° W 20:25:35 43° SSW 20:27:18 21° SE
STARLINK-1154 3.5 20:23:01 10° W 20:26:02 43° SSW 20:27:43 21° SE
Cosmos 2228 3.2 20:22:18 10° SSW 20:26:37 76° WNW 20:31:00 10° N
Cosmos 407 Rocket 3.4 20:21:38 10° S 20:26:43 64° ESE 20:31:48 10° NNE
STARLINK-1197 3.6 20:23:57 10° W 20:26:56 43° SSW 20:28:36 22° SE
Cosmos 1656 4.4 20:21:35 10° NNW 20:26:58 40° NE 20:30:56 17° ESE
Cosmos 2181 Rocket 4.5 20:21:22 10° SSE 20:27:02 39° E 20:32:41 10° NNE
SL-24 R/B - RUBIN 2 4.5 20:21:41 10° SSW 20:27:12 52° ESE 20:33:23 10° NE
STARLINK-1189 3.6 20:24:23 10° W 20:27:23 42° SSW 20:29:01 22° SE
STARLINK-1198 3.6 20:24:50 10° W 20:27:49 42° SSW 20:29:27 22° SE
Cosmos 1461 3.8 20:23:30 10° NW 20:27:53 52° SW 20:32:00 12° SSE
Cosmos 1980 Rocket 3.9 20:23:51 10° NNW 20:28:10 22° NNE 20:32:28 10° E
STARLINK-1188 3.6 20:25:17 10° W 20:28:16 42° SSW 20:29:53 22° SE
STARLINK-1235 3.9 20:25:57 10° W 20:28:53 36° SSW 20:30:32 21° SSE
STARLINK-1239 3.6 20:24:55 10° W 20:29:03 72° SSW 20:31:48 20° ESE
STARLINK-1187 3.7 20:26:22 10° W 20:29:21 39° SSW 20:30:59 21° SSE
STARLINK-1199 3.6 20:27:14 10° W 20:30:13 41° SSW 20:31:48 23° SE
ERS-1 Rocket 4.1 20:27:20 16° ESE 20:30:17 28° ENE 20:34:33 10° N
Cosmos 1892 3.9 20:27:02 10° N 20:30:23 27° ENE 20:32:00 20° ESE
STARLINK-1191 3.6 20:27:42 10° W 20:30:41 41° SSW 20:32:15 23° SE
STARLINK-1210 3.6 20:28:08 10° W 20:31:07 41° SSW 20:32:40 23° SSE
STARLINK-1221 3.7 20:28:35 10° W 20:31:35 41° SSW 20:33:07 23° SSE
SPOT 3 Rocket 3.9 20:26:30 10° S 20:31:42 67° WSW 20:36:54 10° NNW
STARLINK-29 4.5 20:29:20 10° SSW 20:31:19 19° SSE 20:31:19 19° SSE
STARLINK-1219 3.7 20:29:02 10° W 20:32:01 40° SSW 20:33:32 23° SSE
STARLINK-1222 3.7 20:29:29 10° W 20:32:28 40° SSW 20:33:58 23° SSE
STARLINK-1211 3.7 20:29:57 10° W 20:32:56 40° SSW 20:34:24 23° SSE
STARLINK-1214 3.7 20:30:23 10° W 20:33:22 40° SSW 20:34:50 23° SSE
SJ-6B 4.3 20:29:32 10° SSW 20:33:25 39° W 20:37:20 10° NNW
STARLINK-60 3.7 20:30:44 10° SW 20:33:45 34° SSE 20:34:55 25° ESE
STARLINK-1245 3.7 20:30:53 10° W 20:33:51 39° SSW 20:35:16 24° SSE
STARLINK-1240 3.6 20:29:55 10° W 20:34:03 70° SSW 20:36:36 22° ESE
STARLINK-1238 3.7 20:31:17 10° W 20:34:17 39° SSW 20:35:43 24° SSE
STARLINK-1205 3.7 20:32:15 10° W 20:35:12 39° SSW 20:36:34 24° SSE
Cosmos 220 Rocket 4.2 20:31:18 10° NNW 20:35:34 56° ENE 20:38:15 22° SE
STARLINK-1204 3.7 20:32:41 10° W 20:35:38 38° SSW 20:36:59 24° SSE
Cosmos 1603 4.5 20:30:26 10° SW 20:35:58 56° NW 20:41:30 10° NNE
SPOT 5 4.0 20:34:13 17° E 20:36:09 23° ENE 20:39:33 10° N
Cosmos 2366 rocket 4.2 20:30:35 10° N 20:36:34 51° ENE 20:41:05 18° SE
Aureole 1 Rocket 3.9 20:30:35 10° SSW 20:37:51 80° ESE 20:43:28 10° NNE
Cosmos 1606 Rocket 4.3 20:33:36 10° SSW 20:37:59 58° WNW 20:42:25 10° N
STARLINK-1216 3.7 20:34:54 10° W 20:39:02 68° SSW 20:41:24 24° ESE
Cosmos 1825 4.0 20:37:49 10° NNE 20:40:16 16° ENE 20:41:04 15° ENE
Abrixas rocket 3.5 20:40:01 10° WSW 20:42:27 23° SSW 20:43:05 21° S
ATLAS 5 CENTAUR R/B 1.7 20:39:08 10° SSW 20:43:13 50° SE 20:47:52 10° NE
STARLINK-1237 3.7 20:39:52 10° W 20:44:00 66° SSW 20:46:09 26° ESE
Terra 3.3 20:42:27 17° E 20:44:32 23° ENE 20:48:17 10° N
Cosmos 1818 3.8 20:42:07 10° SW 20:47:34 74° NW 20:53:03 10° NE
Cosmos 2151 4.2 20:45:08 10° N 20:48:41 25° ENE 20:49:52 22° E
Cosmos 2058 3.2 20:44:53 10° N 20:48:54 49° ENE 20:50:48 27° SE
STARLINK-1202 3.7 20:44:52 10° W 20:48:58 63° SSW 20:50:57 29° SE
Cosmos 192 4.4 20:44:16 10° NNW 20:49:14 68° ENE 20:52:09 24° SE
Cosmos 1954 Rocket 4.1 20:45:52 10° S 20:50:56 53° ESE 20:56:01 10° NNE
RESURS DK-1 3.3 20:47:37 10° NNW 20:51:29 35° NE 20:53:17 24° E
Cosmos 1023 Rocket 4.4 20:46:50 10° SSW 20:52:00 77° ESE 20:57:09 10° NNE
FALCON 9 DEB 4.4 20:51:29 10° SSW 20:53:39 24° S 20:53:39 24° S
Cosmos 1300 2.6 20:52:16 14° S 20:55:25 70° E 20:59:14 10° NNE
SPOT 1/Viking Rocket 3.8 20:52:37 24° SE 20:55:34 52° ENE 21:00:40 10° N
Cosmos 1076 Rocket 3.5 20:52:44 10° N 20:56:59 61° ENE 20:59:02 29° SSE
STARLINK-1201 4.1 20:54:16 10° W 20:57:14 32° SSW 20:58:00 28° S
SL-4 R/B 1.7 20:54:06 10° WSW 20:57:25 51° SSE 20:58:16 39° ESE
In-Cosmos 22 Rocket 4.3 20:52:29 10° NNW 20:58:22 76° ENE 21:02:23 21° SSE
STARLINK-1246 3.8 20:54:50 10° W 20:58:55 58° SSW 21:00:32 33° SE
STARLINK-1203 3.9 20:55:41 10° W 20:59:48 56° SSW 21:01:25 33° SE
MOS 1 Rocket 3.7 20:54:42 10° NNE 21:00:06 86° WNW 21:05:34 10° SSW
Cosmos 1340 Rocket 3.3 20:56:49 10° SSW 21:00:50 61° WNW 21:04:50 10° N
CZ-2C R/B 4.4 20:56:46 10° N 21:01:26 60° WNW 21:06:00 10° SSW
STARLINK-1224 3.8 20:59:48 10° W 21:03:53 56° SSW 21:05:18 36° SE
Cosmos 1763 Rocket 3.5 21:02:51 10° NNW 21:08:04 68° ENE 21:10:30 31° SE
H-2A R/B 4.5 21:04:25 10° SW 21:08:10 20° W 21:11:53 10° NW
STARLINK-1225 3.9 21:04:48 10° W 21:08:51 53° SSW 21:10:06 38° SSE
SAR-Lupe-2 3.4 21:06:04 10° NNE 21:09:39 69° ESE 21:11:07 33° S
Cosmos 1833 Rocket 4.3 21:13:43 17° E 21:13:43 17° E 21:16:04 10° ENE
STARLINK-1230 3.9 21:09:47 10° W 21:13:50 51° SSW 21:14:53 39° SSE
BREEZE M DEB (TANK) 3.9 21:12:45 10° SSW 21:16:36 40° SE 21:27:27 10° ENE
Cosmos 540 Rocket 4.0 21:12:25 10° NNW 21:17:25 46° NE 21:19:20 32° ESE
Cosmos 1821 Rocket 4.5 21:11:45 10° N 21:17:53 46° ENE 21:20:34 30° ESE
MetOp-B 4.3 21:14:22 20° S 21:18:10 69° WSW 21:23:33 10° NNW
Cosmos 1174 4.1 21:14:30 10° NW 21:18:26 70° SW 21:20:14 36° SSE
STARLINK-1243 4.0 21:14:46 10° W 21:18:47 49° SSW 21:19:40 41° SSE
Cosmos-2242 3.8 21:21:21 32° E 21:21:21 32° E 21:25:10 10° NNE
COSMOS 2406 3.9 21:21:00 32° ESE 21:21:25 32° ESE 21:26:26 10° NE
SL-08 R/B 4.4 21:15:45 10° N 21:21:54 71° ENE 21:25:05 30° SSE
Iridium 4 Rocket 2.8 21:18:58 10° N 21:23:15 86° E 21:24:45 39° S
STARLINK-1236 4.0 21:19:44 10° W 21:23:43 46° SSW 21:24:26 42° S
Meteor 2-10 Rocket 4.1 21:23:20 34° ESE 21:24:16 37° E 21:29:15 10° NNE
USA 234 3.5 21:20:18 10° ENE 21:26:30 44° SE 21:32:41 10° SSW
STPSAT 2 (USA 217) 4.5 21:26:05 26° S 21:28:30 64° ESE 21:32:58 10° NE
USA 32 4.1 21:24:15 10° N 21:29:28 63° E 21:31:15 40° SE
STARLINK-1269 4.2 21:29:42 10° W 21:33:38 42° SSW 21:33:59 41° SSW
Cosmos 1140 Rocket 4.1 21:29:19 10° SW 21:34:24 56° WNW 21:39:31 10° NNE
Cosmos 1408 2.4 21:32:51 10° N 21:36:31 72° ENE 21:36:38 71° E
CZ-4C R/B 3.1 21:31:05 10° NW 21:37:44 63° NE 21:41:59 28° ESE
Cosmos 2369 3.8 21:32:30 10° NNW 21:38:09 65° NE 21:40:06 40° ESE
STARLINK-1200 4.3 21:34:41 10° W 21:38:35 40° SSW 21:38:46 40° SSW
Landsat 7 4.1 21:37:49 33° S 21:39:53 66° WSW 21:44:39 10° NNW
Spot 2 Rocket 4.1 21:37:04 23° SSW 21:40:04 52° W 21:45:05 10° NNW
CZ-2C R/B 3.5 21:35:34 10° N 21:40:32 48° WNW 21:45:30 10° SW
Cosmos 1850 Rocket 4.0 21:39:34 42° SSE 21:41:01 58° ESE 21:46:08 10° NNE
Meteor 2-1 Rocket 4.2 21:38:43 24° S 21:42:26 82° E 21:48:25 10° NNE
STARLINK-1192 4.4 21:39:41 10° W 21:43:33 38° SSW 21:43:33 38° SSW
Cosmos 1697 Rocket 2.7 21:38:16 10° NNW 21:43:57 72° NE 21:45:47 44° SE
CARTOSAT-1 3.4 21:43:22 57° SSE 21:44:14 86° ENE 21:48:35 10° NNW
IGS 5A 3.9 21:43:20 39° SSW 21:44:37 57° W 21:48:44 10° NNW
COSMOS 2455 4.3 21:39:34 10° NW 21:44:40 29° WSW 21:48:22 16° SSW
ASTEX 1 4.1 21:44:36 36° E 21:45:12 38° ENE 21:49:46 10° N
Cosmos 841 Rocket 3.5 21:40:07 10° NNW 21:45:26 77° ENE 21:46:53 49° SE
ERBS 3.6 21:42:45 10° WNW 21:45:20 32° WSW 21:45:20 32° WSW
Cosmos 1356 Rocket 3.5 21:46:43 58° E 21:46:43 58° E 21:50:51 10° NNE
Mayak 0.5 21:45:54 10° NE 21:47:47 19° ENE 21:47:47 19° ENE
Okean 3 Rocket 3.4 21:45:01 10° N 21:49:27 79° E 21:50:04 64° SE
Resurs 01 Rocket 3.8 21:46:21 10° SW 21:49:47 22° W 21:53:15 10° NW
ATLAS CENTAUR R/B 1.2 21:48:57 10° NW 21:52:54 67° NE 21:52:55 67° NE
BREEZE M DEB (TANK) 3.9 21:48:36 10° WSW 21:52:39 33° SW 21:52:39 33° SW
Cosmos 1766 Rocket 3.4 21:50:02 10° N 21:54:32 75° ENE 21:54:58 68° SE
Cosmos 1570 Rocket 4.1 21:55:37 10° NNW 22:00:59 72° WSW 22:02:21 49° S
SL-16 R/B 3.6 21:56:53 10° NNW 22:01:47 29° NE 22:04:14 21° ENE
Cosmos 1455 2.3 22:05:04 69° NNE 22:05:04 69° NNE 22:08:29 10° NNE
Cosmos 2360 Rocket 4.2 22:00:44 10° NNW 22:04:48 20° NNE 22:08:30 11° ENE
Cosmos 1892 4.1 22:02:36 10° NNW 22:06:09 33° W 22:07:01 30° WSW
ERS-1 Rocket 3.4 22:07:19 40° SSW 22:08:50 56° W 22:13:48 10° NNW
Meteor 2-3 Rocket 3.8 22:04:12 10° N 22:09:57 66° ENE 22:11:01 54° SE
Cosmos 2322 Rocket 3.7 22:05:21 10° NNW 22:10:12 28° NE 22:12:33 21° ENE
Cosmos 1656 4.2 22:05:19 10° NW 22:10:49 51° WSW 22:12:23 40° SSW
Cosmos 1980 Rocket 2.2 22:07:36 10° NNW 22:13:13 68° NE 22:14:20 55° ESE
SPOT 5 3.0 22:13:27 51° SW 22:13:58 55° WSW 22:18:15 10° NNW
Cosmos 1825 2.6 22:12:25 10° NNW 22:15:53 57° WNW 22:15:53 57° WNW
Terra 1.9 22:21:20 59° SW 22:21:55 65° WSW 22:26:40 10° NNW
Cosmos 2151 3.8 22:22:09 10° NNW 22:26:08 42° W 22:26:27 41° WSW
ATLAS 5 CENTAUR R/B 2.9 22:23:44 10° W 22:27:58 43° NNW 22:32:52 10° NE
RESURS DK-1 3.5 22:25:42 10° NW 22:29:11 37° W 22:29:11 37° W
Cosmos 2360 4.1 22:28:28 10° NW 22:34:10 74° WSW 22:34:51 66° S
Cosmos 1408 Rocket 3.7 22:31:16 10° NNW 22:35:30 70° WNW 22:35:30 70° WNW
SL-4 R/B 4.3 22:33:23 10° W 22:33:53 14° W 22:33:53 14° W
Cosmos 1743 Rocket 3.9 22:32:24 10° N 22:36:21 61° NE 22:36:21 61° NE
Nadezhda 3 Rocket 4.0 22:35:02 46° SSW 22:37:06 79° WNW 22:43:25 10° N
Cosmos 1741 Rocket 4.5 22:35:14 29° SW 22:37:50 61° WNW 22:43:09 10° NNE
Cosmos 1535 Rocket 4.4 22:32:58 10° N 22:39:09 87° WSW 22:40:18 62° S
Thor Agena Rocket 3.9 22:35:22 10° NNE 22:39:38 49° ENE 22:39:38 49° ENE
Cosmos 2278 3.6 22:34:42 10° NW 22:40:21 71° WSW 22:40:53 66° SSW
Cosmos 2082 Rocket 2.7 22:45:47 45° ENE 22:45:47 45° ENE 22:50:13 10° NE
Cosmos 2344 4.2 22:44:21 10° NW 22:53:30 83° SW 22:58:33 41° SE
Cosmos 836 Rocket 4.4 22:49:10 10° NNW 22:54:24 82° NE 22:54:24 82° NE
Cosmos 1633 4.4 22:51:00 10° N 22:52:54 29° N 22:52:54 29° N
Cosmos 1833 Rocket 2.5 22:55:21 83° SSE 22:55:32 85° ESE 23:01:13 10° NNE
Cosmos 2221 3.5 22:58:41 42° NNE 22:58:41 42° NNE 23:01:43 10° NNE
Cosmos 1727 Rocket 4.4 22:58:39 46° E 22:58:43 46° E 23:04:43 10° NNE
Cosmos 1346 Rocket 4.5 22:55:02 10° N 22:57:35 28° NE 22:57:35 28° NE
Cosmos-2242 4.4 22:58:09 32° W 22:58:49 33° WNW 23:02:49 10° N
Cosmos 540 Rocket 4.5 22:54:16 10° NW 22:58:55 35° WSW 22:59:09 34° WSW
Spot 4 3.9 22:59:29 73° N 22:59:29 73° N 23:03:54 10° NNW
Cosmos 2219 Rocket 4.3 22:59:12 10° NNW 23:03:18 20° NNE 23:07:20 10° ENE
Meteor 1-27 4.1 23:03:27 81° SE 23:03:40 83° E 23:09:33 10° NNE
COSMOS 2406 3.7 23:02:57 32° WSW 23:05:28 58° NW 23:11:09 10° NNE
Cosmos 1934 Rocket 4.3 23:01:58 10° NNW 23:08:05 57° W 23:09:09 50° SW
USA 234 3.2 23:03:22 10° ENE 23:09:57 88° NNW 23:16:31 10° WSW
Cosmos 1842 Rocket 4.3 23:12:27 50° N 23:12:27 50° N 23:15:45 10° N
Cosmos 2100 Rocket 4.3 23:06:21 10° N 23:12:26 53° ENE 23:12:57 52° E
Cosmos 2173 Rocket 4.1 23:15:29 10° N 23:21:30 57° ENE 23:21:49 56° E
Cosmos 1340 4.4 23:18:13 10° N 23:20:20 31° N 23:20:20 31° N
Cosmos 1605 Rocket 4.0 23:16:38 10° NNW 23:22:42 65° W 23:23:16 62° SW
ASTEX 1 4.5 23:24:06 36° W 23:24:14 36° W 23:28:49 10° NNW
Sich 1 4.0 23:19:51 10° N 23:23:10 47° NNE 23:23:10 47° NNE
Mayak -0.1 23:21:05 10° N 23:24:21 41° NW 23:24:21 41° NW
CZ-4C R/B 3.1 23:19:38 10° NW 23:26:28 52° SW 23:27:10 51° SW
Cosmos 1697 Rocket 4.1 23:22:53 10° NW 23:27:26 25° WSW 23:27:31 25° WSW
Cosmos 773 Rocket 4.4 23:25:34 10° NNW 23:30:28 55° NE 23:30:28 55° NE
ATLAS CENTAUR R/B 3.9 23:28:36 10° WNW 23:29:06 12° WNW 23:29:06 12° WNW
ALOS 2 3.4 23:32:40 49° N 23:32:40 49° N 23:35:55 10° NNW
Cosmos 1486 Rocket 4.3 23:34:38 63° NE 23:34:38 63° NE 23:39:04 10° NNE
Cosmos 968 Rocket 3.9 23:46:26 57° NE 23:46:26 57° NE 23:50:41 10° NNE
SL-16 R/B 2.2 23:40:50 10° NNW 23:46:05 74° WNW 23:46:05 74° WNW
Cosmos 2360 Rocket 2.5 23:44:28 10° NNW 23:50:02 58° NE 23:50:15 57° ENE
